Regional Weather Roundup
Issued by NWS Cleveland, OH

Home | Current Version | Previous Version | Graphics & Text | Print | Product List | Glossary On
Versions: 1 2 3 4 5 6 7 8 9 10 11 12 13 14 15 16 17 18 19 20 21 22 23 24 25 26 27 28 29 30 31 32 33 34 35 36 37 38 39 40 41 42 43 44 45 46 47 48 49 50
000
ASUS41 KCLE 241502
RWRCLE
OHIO REGIONAL WEATHER ROUNDUP
NATIONAL WEATHER SERVICE CLEVELAND, OH
1100 AM EDT MON JUL 24 2017

NOTE: "FAIR" INDICATES FEW OR NO CLOUDS BELOW 12,000 FEET WITH NO
SIGNIFICANT WEATHER AND/OR OBSTRUCTIONS TO VISIBILITY.

OHZ001>008-015>018-024>027-034-035-043-044-241600-
   NORTHWEST OHIO

CITY           SKY/WX    TMP DP  RH WIND       PRES   REMARKS
DEFIANCE       CLOUDY   N/A N/A N/A N12       29.97R
FINDLAY        CLOUDY    71  62  73 N9        29.94R
TOLEDO EXPRESS CLOUDY    66  60  81 N13       29.95R
TOLEDO EXEC    CLOUDY    68  59  73 NW10      29.95R
LIMA           PTSUNNY   70  64  81 N12G18    29.95R
$$

OHZ009>014-019>023-028>033-038-089-241600-
   NORTHEAST OHIO

CITY           SKY/WX    TMP DP  RH WIND       PRES   REMARKS
CLE-HOPKINS    CLOUDY    73  63  70 N14       29.91R
CLE-LAKEFRONT  CLOUDY    70  62  76 N17       29.89R
CUY CO. ARPT   CLOUDY    70  63  78 N12       29.90R
LORAIN-ELYRIA  CLOUDY    71  60  68 N8        29.91R
ASHTABULA      CLOUDY    68  62  81 NW12G17   29.88R
AKRON-CANTON   PTSUNNY   77  66  68 NW10      29.89R
WOOSTER        PTSUNNY   73  66  78 N9        29.90S
MANSFIELD      PTSUNNY   75  66  73 NW10      29.91R
YOUNGSTOWN     CLOUDY    74  66  76 NW10      29.87S
$$

OHZ042-051>053-060>062-070>072-077>081-241600-
  SOUTHWEST OHIO

CITY           SKY/WX    TMP DP  RH WIND       PRES   REMARKS
CINC-COVINGTON MOSUNNY   80  72  76 NW7       29.93S
CINC-LUNKEN    SUNNY     81  71  71 W7        29.92S
HAMILTON       MOSUNNY   80  70  71 NW6       29.94R
DAYTON         MOSUNNY   76  67  73 NW14      29.95R
WRIGHT-PAT AFB SUNNY     77  68  74 NW10      29.93R
DAYTON GENERAL SUNNY     77  66  68 N9        29.93R
WILMINGTON     PTSUNNY   76  70  82 NW7       29.93R
$$

OHZ036-037-039>041-045>050-054>059-063>069-073>076-082>088-241600-
  CENTRAL AND SOUTHEAST OHIO

CITY           SKY/WX    TMP DP  RH WIND       PRES   REMARKS
COLUMBUS       MOSUNNY   77  70  79 N9        29.90R
OSU AIRPORT    MOSUNNY   75  70  84 NW9       29.91R
BOLTON FIELD   MOSUNNY   77  70  78 NW10G16   29.92R
RICKENBACK AFB MOSUNNY   75  70  84 NW6       29.90R
NEWARK         PTSUNNY   77  69  76 NW7       29.89R
MARION         PTSUNNY   76  65  68 N10       29.92R
LANCASTER      CLOUDY    65 N/A N/A NW6       29.91R
ZANESVILLE     PTSUNNY   76  69  79 NW9       29.89R
NEW PHILLY     NOT AVBL
$$




USA.gov is the U.S. government's official web portal to all federal, state and local government web resources and services.